Location: K�ln
(50.9455°N, 6.9544°E)
Time: 02:11:42
(UTC+01:00)

ISS - Pass Details

Date: 12 February 2018
Orbit: 403 x 407 km, 51.6° (Epoch: 22 February)

Event Time Altitude Azimuth Distance (km) Brightness Sun altitude
Rises 18:31:21 0° 283° (WNW) 2,322 1.4 -8.1°
Reaches altitude 10° 18:33:42 10° 268° (W) 1,459 0.6 -8.5°
Maximum altitude 18:36:18 22° 215° (SW) 935 -1.4 -8.9°
Drops below altitude 10° 18:38:54 10° 162° (SSE) 1,454 -1.1 -9.3°
Sets 18:41:15 0° 147° (SSE) 2,310 -0.2 -9.7°
